User: anonymous
Location: Caltech
(34.1382°N, 118.1253°W)
Time: 01:44:58
(UTC-07:00)
Language:

ATLAS 5 CENTAUR R/B - Orbit

View from above orbital plane
View from above orbital plane
View from above satellite
View from above satellite

Ground track
Ground track

The orbit data is extracted from the following two-line orbital elements,

1 30778U 07006G   14293.39667067  .00165615  00000-0  14314-2 0  1420
2 30778 035.6818 028.4049 0003141 301.1031 138.1957 15.67717490424453
Epoch (UTC): 20 October 2014 09:31:12
Eccentricity: 0.0003141
inclination: 35.6818°
perigee height: 363 km
apogee height: 367 km
right ascension of ascending node: 28.4049°
argument of perigee: 301.1031°
revolutions per day: 15.67717490
mean anomaly at epoch: 138.1957°
orbit number at epoch: 42445

The dashed part of the orbit path shows where the satellite is in the earth's shadow,  

DLR